NIMBUS 3

导读

NIMBUS 3是美国于1969年4月14日发射的气象试验卫星,属于雨云系列卫星的第三代,运行于太阳同步轨道。它搭载了高分辨率红外辐射计、臭氧廓线探测仪等多种先进载荷,可实现对全球大气温度、水汽分布、云层结构以及臭氧含量的连续观测,为气象预报模型改进、大气物理研究提供了珍贵的早期卫星观测数据,推动了卫星气象学的发展。

Basic Information
目录编号:
3890
目录名称:
NIMBUS 3
国际标识:
1969-037A
轨道中心:
EARTH
卫星名称:
NIMBUS 3
卫星全名:
--
卫星状态:
在轨 (已飞行20887 天)
发射日期:
1969-04-14 UTC
国别 :
美国 (US)
星等 :
--
Orbit Information
数据来源 国际轨道数据 AOE轨道数据
星历时间 2026-06-20T18:20:03+0800
1天前
查看轨道信息
2026-06-20T02:00:00+0800
2天前
查看轨道信息
半长轴 7477.48km 7477.478km
偏心率 0.00389 0.0038908
轨道倾角 99.706° 99.706°
近地点辐角 314.793° 316.451°
升交点赤经 52.067° 51.411°
平近点角 218.577° 168.856°
近地点 1070.255km 1070.247km
远地点 1128.431km 1128.435km
周期 107.249分钟 107.249分钟
每日圈数 13.42672 13.426724
Detailed Information
使用方式:
暂无
2D Orbit Map
3D Orbit Map
Orbit Altitude Analysis Chart
Orbit Inclination Analysis Chart
Orbit Comprehensive Analysis Chart
View Comprehensive Chart